Location: Columbia
(38.9520°N, 92.3340°W)
Time: 19:22:49
(UTC-05:00)

Iridium 15 - Visible Passes

Search period start: 24 April 2015 00:00
Search period end: 04 May 2015 00:00
Orbit: 776 x 779 km, 86.4° (Epoch: 24 April)

Date Brightness Start Highest point End Pass type
(mag) Time Alt. Az. Time Alt. Az. Time Alt. Az.
24 Apr 5.9 22:01:33 10° N 22:06:48 86° W 22:08:24 46° S visible
25 Apr 6.2 21:28:09 10° N 21:33:13 50° E 21:35:23 31° SE visible
25 Apr 8.4 23:10:10 10° NW 23:13:34 17° W 23:15:53 13° WSW visible
26 Apr 7.0 20:55:08 10° NNE 20:59:29 27° ENE 21:02:23 17° SE visible
26 Apr 7.6 22:35:39 10° NNW 22:40:15 31° W 22:42:54 20° SW visible
27 Apr 7.7 20:22:48 10° NE 20:25:35 15° ENE 20:28:37 10° ESE visible
27 Apr 6.5 22:01:42 10° N 22:06:51 59° W 22:09:55 24° SSW visible
28 Apr 5.9 21:28:06 10° N 21:33:20 74° E 21:36:59 20° S visible
28 Apr 8.8 23:11:40 10° WNW 23:13:29 11° WNW 23:14:58 10° W visible
29 Apr 6.6 20:54:50 10° NNE 20:59:42 39° E 21:04:04 13° SSE visible
29 Apr 8.2 22:36:13 10° NNW 22:40:12 22° W 22:44:02 10° SW visible
30 Apr 7.3 20:22:01 10° NNE 20:25:54 21° ENE 20:29:55 10° SE visible
30 Apr 7.2 22:01:58 10° NNW 22:06:51 40° W 22:11:39 10° SSW visible
01 May 6.2 21:28:10 10° N 21:33:24 76° W 21:38:36 10° S visible
02 May 6.1 20:54:42 10° N 20:59:50 58° E 21:04:59 10° SSE visible
02 May 8.7 22:37:07 10° NW 22:40:07 15° W 22:42:52 10° WSW visible
03 May 7.9 22:02:24 10° NNW 22:06:48 28° W 22:11:07 10° SW visible
